Probability
0 1 3 2 1 0 0 0 0 0 0 0 0 0 0 0 0 0 0 0 1 1 1 0 0 0 0 0 0 0 0 0 0 0 0 0 0 0 0 0 0 0 0 0 0 0 0 0 0
2 2 3 2 1 0 0 0 0 0 0 0 0 0 0 0 0 0 0 0 0 1 1 1 0 0 0 0 0 0 0 0 0 0 0 0 0 0 0 0 0 0 0 0 0 0 0 0 0
2 2 2 1 0 0 0 0 0 0 0 0 0 0 0 0 0 0 0 0 1 2 2 2 1 1 1 1 0 0 0 0 0 0 0 0 0 0 0 0 0 0 0 0 0 0 0 0 0
1 1 0 0 0 0 0 0 0 0 0 0 0 0 0 0 0 0 0 1 2 2 2 2 2 2 2 2 1 1 0 0 0 0 0 0 0 0 0 0 0 0 1 1 1 1 0 0 0
0 0 0 0 0 0 0 0 0 0 0 0 0 0 0 0 0 0 0 1 2 1 1 1 2 3 3 3 2 2 1 0 0 0 0 0 0 0 0 0 0 0 1 2 2 2 1 1 0
0 0 0 0 0 0 0 0 0 0 0 0 0 0 0 0 0 0 0 1 2 1 0 1 1 2 2 2 2 2 1 0 0 1 1 0 0 0 0 0 0 0 1 1 2 3 3 2 1
0 0 0 0 0 0 0 0 0 0 0 0 0 0 0 0 0 0 0 1 2 1 0 0 0 0 1 1 0 1 1 1 1 2 2 1 0 0 0 0 0 1 1 1 1 2 3 3 3
0 0 0 0 0 0 0 0 0 0 0 0 0 0 0 0 0 0 1 1 1 1 0 0 0 0 0 0 0 1 2 2 3 3 3 1 0 0 0 0 0 1 2 2 1 2 3 3 3
0 0 0 0 0 0 0 0 0 0 0 0 0 0 0 0 0 0 1 2 1 1 1 1 1 1 0 0 0 1 2 2 2 2 2 1 0 0 0 0 0 1 2 3 3 3 3 3 3
0 0 0 0 0 0 0 0 0 0 0 0 0 0 1 0 0 0 1 1 1 1 2 2 2 1 0 0 0 0 1 1 1 1 1 1 0 0 0 0 0 0 1 2 3 4 4 3 3
0 0 0 0 0 0 0 0 0 0 0 0 0 0 0 0 0 0 0 0 0 0 1 2 2 1 0 0 0 0 0 0 0 0 0 0 0 0 0 0 0 0 0 1 1 3 3 3 3
0 0 0 0 0 0 0 0 0 0 0 0 0 0 0 0 0 0 0 0 0 0 0 1 1 0 0 0 0 0 0 0 0 0 0 0 0 0 0 0 0 0 0 0 0 1 2 3 3
0 0 0 0 0 0 0 0 0 0 0 0 1 0 0 0 0 0 0 1 0 0 0 0 0 0 0 0 0 0 0 0 0 0 0 0 0 0 0 0 0 0 0 0 0 0 1 3 3
0 0 0 0 0 0 0 0 0 0 0 0 0 0 0 0 0 0 0 0 0 0 0 0 0 0 0 0 0 0 0 0 0 0 0 0 0 0 0 0 0 0 0 0 0 0 1 2 3
0 0 0 0 0 0 0 0 0 0 0 0 0 0 0 0 0 0 0 0 0 0 0 0 0 0 0 0 0 0 0 0 0 0 0 0 0 0 0 0 0 0 0 0 0 0 0 1 2
0 0 0 0 0 0 0 0 0 0 0 0 0 0 0 0 0 0 0 0 0 0 0 0 0 0 0 0 0 0 1 1 0 0 0 0 0 0 0 0 0 0 0 0 0 0 0 0 1
0 0 0 0 0 0 0 0 0 0 0 0 0 0 0 0 0 0 0 0 0 0 0 0 0 0 0 1 1 1 1 1 0 0 0 0 0 0 0 0 0 0 0 0 0 0 0 0 0
0 0 0 0 0 0 0 0 0 0 0 0 0 0 0 0 1 0 0 0 0 0 0 0 0 0 1 2 1 1 1 1 0 0 0 0 0 0 0 0 0 0 0 0 0 0 0 0 0
0 0 1 0 0 0 0 0 0 0 0 0 0 0 0 0 0 0 0 0 0 0 0 0 0 0 2 2 1 1 1 2 1 1 0 0 0 0 0 0 0 0 0 0 0 0 0 0 0
0 0 0 0 0 0 0 0 0 0 0 0 0 0 0 0 0 0 1 1 1 1 2 2 1 1 2 2 1 0 1 2 3 2 1 0 0 0 0 0 0 0 0 0 0 0 0 0 0
0 0 0 0 0 0 0 0 0 0 0 0 0 0 0 0 0 0 1 2 1 2 3 3 3 2 3 2 2 1 2 2 2 2 1 0 0 0 0 0 0 0 0 0 0 0 0 0 0
0 0 0 0 0 0 0 0 0 0 0 0 0 0 0 0 0 0 1 2 1 1 3 3 3 3 3 3 4 4 3 2 1 1 1 0 0 0 0 0 0 0 0 0 0 0 0 0 0
0 0 0 0 0 0 0 0 0 0 0 0 0 0 0 0 0 0 0 1 2 2 3 4 3 3 3 4 6 6 4 2 1 0 0 0 0 0 0 0 0 0 0 0 0 0 0 0 0
0 0 0 0 0 0 0 0 0 0 0 0 0 0 0 0 0 0 0 1 3 5 5 5 6 5 5 7 8 8 6 4 2 1 0 0 0 0 0 0 0 0 0 0 0 0 0 0 0
0 0 0 0 0 0 0 0 0 0 0 0 0 0 0 0 1 1 1 2 4 7 7 8 9 9 8 9 9 9 8 6 3 1 0 0 0 0 0 0 0 0 0 0 0 0 0 0 0
0 0 0 0 0 0 0 0 0 0 0 0 0 0 0 0 1 2 2 3 5 8 9 9 10 10 10 9 9 9 8 6 4 2 1 0 0 0 0 0 0 0 0 0 0 0 0 0 0
0 0 0 0 0 0 0 0 0 0 0 0 0 0 0 0 0 1 2 3 5 7 8 8 8 9 9 9 8 7 7 5 4 3 2 1 0 0 0 0 0 0 0 1 1 1 0 0 0
0 0 0 0 0 0 0 0 0 0 0 0 0 0 0 0 0 0 1 1 2 4 6 7 6 7 8 7 6 6 5 4 3 3 2 1 0 0 0 0 0 0 0 1 2 1 0 0 0
0 0 0 0 0 0 0 0 0 0 0 0 0 0 0 0 0 0 0 0 0 1 4 6 6 6 6 5 4 4 4 2 1 1 1 0 0 0 0 0 0 0 0 1 1 1 0 0 0
0 0 0 0 0 0 0 0 0 0 0 0 0 0 0 0 0 0 0 0 0 1 2 4 4 4 4 3 2 2 2 1 0 0 0 0 0 0 0 0 0 0 0 0 1 0 0 0 0
Wind_Speed
8 10 7 2 2 0 5 6 8 7 7 8 9 9 13 12 9 7 2 4 6 8 10 11 11 11 12 12 12 12 12 13 12 12 12 12 11 12 12 11 11 11 11 11 11 11 10 10 10
9 6 4 2 2 2 5 7 9 9 6 5 8 11 13 11 10 8 3 4 7 9 10 10 10 10 11 11 12 12 12 12 12 12 12 12 12 12 12 11 11 11 11 11 11 10 10 10 10
11 7 3 2 2 5 6 7 8 8 6 6 9 11 9 7 9 6 4 5 8 10 11 10 11 10 11 11 11 11 12 12 12 12 12 12 12 12 11 11 11 11 11 10 10 10 10 10 10
5 3 2 1 6 7 7 6 6 7 6 7 8 10 9 9 7 7 6 7 9 10 10 9 11 11 10 11 11 11 11 11 11 11 11 11 11 11 11 11 11 10 10 10 10 10 10 10 9
3 2 0 3 6 7 7 6 6 7 8 9 11 12 10 9 9 7 5 6 8 8 9 9 11 10 10 10 11 10 10 10 10 10 10 10 10 10 11 10 10 10 10 10 10 9 9 9 9
2 2 0 3 6 6 6 5 6 9 8 7 10 11 8 7 7 5 5 5 8 7 9 9 10 10 10 10 10 9 9 9 8 8 8 8 9 10 10 10 10 10 10 9 9 9 9 8 8
2 1 1 4 6 5 6 6 6 7 7 7 7 9 8 7 5 5 4 5 6 6 7 8 8 8 9 9 8 8 7 7 6 6 6 6 7 8 9 9 9 9 9 8 8 8 7 7 7
2 2 1 3 5 6 7 6 7 7 7 7 5 6 7 7 5 5 5 5 5 5 5 6 7 7 7 7 7 6 6 6 5 4 4 4 5 6 8 9 8 8 8 7 6 6 5 5 5
1 0 2 3 4 5 7 7 7 7 7 8 10 10 9 8 6 5 5 5 4 4 4 4 4 5 5 6 7 5 5 4 4 3 3 2 1 3 4 8 7 6 5 4 4 2 2 3 2
1 2 3 4 5 6 7 6 5 5 6 6 9 10 10 6 5 5 4 4 4 3 3 3 3 4 4 4 4 2 2 2 2 2 2 1 2 3 5 7 6 4 3 2 1 1 1 1 1
2 3 3 5 5 5 6 6 5 5 4 4 6 8 8 6 5 4 4 4 4 4 4 3 3 3 3 3 3 1 1 1 1 2 3 2 3 2 3 2 2 2 2 0 0 1 0 1 2
3 4 4 5 5 4 4 4 5 5 5 6 7 8 6 5 5 4 4 4 4 4 3 2 2 2 3 4 2 2 2 2 2 3 3 3 2 2 2 1 1 1 1 1 1 2 3 4 4
3 3 5 5 4 4 4 4 4 5 5 6 8 8 6 4 4 4 4 4 5 4 3 3 2 3 4 3 2 3 3 2 2 2 2 3 2 2 2 2 2 2 2 2 2 2 4 5 5
2 4 3 3 4 3 3 3 3 3 5 6 6 6 5 4 4 4 3 4 4 4 4 3 2 2 3 4 3 3 2 2 3 2 2 3 2 2 2 2 2 2 2 2 2 3 3 3 3
4 4 4 4 4 4 3 2 4 4 6 5 5 6 5 4 3 3 3 4 4 4 4 3 3 3 4 4 3 3 2 3 3 2 3 3 3 3 3 2 2 2 2 4 4 4 3 3 3
7 6 5 5 5 5 4 2 4 6 6 5 4 5 5 4 4 3 3 4 4 4 4 4 3 3 4 4 3 3 3 3 3 2 3 4 4 3 3 2 2 2 3 3 2 2 3 3 3
7 6 5 6 6 4 4 2 4 6 7 6 5 5 5 5 4 3 3 3 3 3 4 5 3 3 4 4 3 3 3 3 2 2 2 3 3 3 3 2 2 3 3 2 2 3 3 2 2
4 4 3 4 6 4 4 4 5 7 7 6 6 5 6 6 6 5 4 3 3 3 4 5 4 4 4 3 3 2 3 2 2 2 2 3 3 4 3 2 3 3 3 2 2 2 2 1 1
4 3 2 2 4 4 5 5 5 6 7 6 6 6 6 6 7 6 5 4 4 3 3 4 4 4 3 2 2 2 2 2 2 2 2 3 4 4 3 2 3 3 2 1 2 2 2 1 1
6 4 3 3 3 3 5 6 6 7 7 6 6 5 5 5 7 7 6 5 4 4 3 3 4 4 4 2 2 1 1 1 1 2 3 3 3 3 2 2 2 2 2 2 2 2 1 1 1
6 5 4 4 4 6 6 6 6 7 7 6 5 4 4 5 6 7 7 6 4 4 3 3 3 4 4 3 2 2 1 2 2 1 1 2 2 3 3 3 2 2 1 1 1 1 1 1 2
6 4 5 6 6 5 7 5 5 7 8 7 6 4 4 4 4 6 7 6 6 4 4 3 3 3 3 3 2 2 1 1 0 1 0 1 1 2 2 2 2 1 1 1 0 0 0 0 1
5 5 7 9 9 9 8 7 4 7 8 7 6 5 4 4 5 6 6 6 6 5 4 3 3 3 3 3 3 2 1 1 1 1 1 1 1 1 1 2 2 1 1 0 1 1 1 0 0
6 7 9 9 8 9 8 7 2 4 6 7 6 5 5 4 5 5 6 6 5 5 4 3 3 3 3 2 3 3 2 1 1 0 0 0 0 1 1 1 1 1 1 1 0 0 0 0 0
8 6 4 4 5 6 4 5 2 3 5 5 6 5 4 4 4 5 6 6 5 5 5 4 3 3 3 3 2 2 2 2 2 1 1 0 0 1 1 1 1 1 1 1 1 1 0 1 1
7 7 5 4 4 2 3 3 4 5 5 5 5 6 4 5 4 4 5 6 5 5 5 4 4 3 3 3 2 2 2 1 1 1 1 0 0 0 1 1 1 1 1 1 1 1 1 0 0
6 6 7 7 8 6 3 3 4 6 5 5 5 5 4 4 5 4 5 6 5 5 4 4 4 3 3 2 2 1 2 2 1 1 0 0 0 0 0 0 1 1 0 0 1 0 1 1 0
8 7 5 5 5 6 5 3 3 5 4 3 4 4 4 4 4 4 4 4 4 4 3 3 3 3 2 1 1 1 1 1 1 1 1 0 0 0 0 1 1 1 1 1 0 0 1 1 1
8 8 7 5 5 5 4 1 2 4 4 4 3 4 3 3 4 4 4 4 4 4 3 2 3 2 2 1 1 1 1 1 1 1 1 1 1 1 1 1 1 1 1 1 1 1 1 2 2
7 8 7 5 5 5 5 1 1 3 3 3 3 3 3 3 4 4 4 4 3 3 3 3 2 2 2 2 2 2 1 1 0 1 1 1 1 1 1 0 1 1 1 1 1 1 1 2 2
Wind_Direction
246 236 231 242 262 220 60 62 63 52 56 50 47 58 63 51 51 82 110 63 79 85 82 70 62 63 64 65 65 63 61 62 63 64 63 63 62 63 60 59 63 63 61 60 57 53 49 48 49
263 256 252 236 259 77 75 76 71 62 63 69 62 63 71 64 74 96 101 76 82 86 81 73 69 67 68 68 68 66 64 64 64 65 64 65 65 64 62 61 62 63 61 60 57 54 53 51 51
259 259 261 253 33 57 74 78 84 79 61 69 75 60 55 64 74 95 108 103 87 85 85 79 74 74 74 73 70 68 67 67 65 66 67 68 66 65 63 63 62 62 60 58 55 53 55 55 53
256 252 250 50 63 64 78 93 97 92 76 68 84 79 67 58 76 96 108 100 92 93 93 90 85 81 79 76 72 70 70 70 69 69 71 71 69 67 63 61 60 61 59 55 53 55 56 57 54
240 260 201 84 78 74 76 81 87 80 73 73 80 89 86 76 85 94 97 98 96 99 103 104 100 93 87 82 77 74 74 73 73 72 74 76 73 69 66 62 61 62 60 57 55 57 57 55 52
268 265 124 91 90 79 77 76 78 83 84 88 95 98 92 98 95 98 95 94 98 107 113 116 115 109 102 94 87 82 82 80 80 79 80 83 80 75 71 66 64 62 60 59 59 60 58 55 50
270 299 95 106 98 91 80 68 70 75 71 65 86 100 109 106 108 111 104 93 97 101 116 128 132 125 117 111 102 96 95 93 95 94 94 95 93 87 79 73 70 66 62 62 62 62 61 59 53
297 312 43 90 99 91 90 82 72 70 73 59 57 88 114 122 129 119 112 100 97 96 100 120 134 140 137 130 120 118 119 118 118 122 124 122 115 106 92 82 76 71 67 68 68 67 67 65 57
283 358 43 59 82 96 106 101 89 77 82 76 68 75 108 125 129 119 111 102 88 88 94 99 109 116 122 124 133 149 152 154 155 167 176 174 148 127 101 95 97 88 81 77 77 79 80 80 59
165 68 56 58 74 92 97 94 107 106 86 87 93 97 107 122 124 118 110 102 98 86 79 88 95 104 105 104 125 146 142 155 185 167 143 135 90 94 95 118 126 127 119 124 165 223 233 196 81
115 102 85 76 70 78 92 88 85 99 86 83 103 113 120 130 121 114 108 100 95 81 63 68 83 92 111 108 100 95 103 109 41 46 80 55 66 92 100 132 144 159 157 145 294 263 345 66 72
107 87 71 81 76 80 90 100 88 76 78 84 93 109 118 120 117 109 106 100 100 96 85 70 71 84 80 80 87 79 66 57 49 27 53 54 45 53 71 62 56 54 49 39 33 17 39 44 50
150 121 108 103 94 96 99 99 92 89 95 100 106 114 118 124 120 111 105 106 102 100 96 75 65 75 83 80 69 76 62 48 60 36 31 61 51 41 61 58 46 35 25 32 41 44 47 47 36
124 127 124 134 141 140 123 122 135 129 127 121 119 120 127 127 118 108 109 104 96 92 83 68 59 58 78 82 72 66 62 57 54 31 18 47 51 45 45 56 49 38 22 18 36 59 58 63 55
181 171 171 181 182 164 153 169 162 158 144 141 139 134 138 135 126 125 119 106 102 104 102 84 66 50 64 75 67 75 61 64 58 36 13 38 44 53 49 45 52 46 32 33 32 44 48 63 67
207 207 197 185 194 182 197 193 151 161 155 155 160 150 148 146 149 138 113 107 102 101 101 96 82 63 61 66 64 65 66 59 57 46 16 20 31 55 54 36 34 51 45 37 38 37 38 46 46
217 215 200 177 190 191 185 199 162 170 168 170 176 167 160 157 159 139 122 119 111 104 109 106 94 81 73 72 66 47 64 62 49 44 31 15 21 45 64 41 19 45 51 30 24 46 40 47 39
231 230 216 191 168 190 198 206 188 184 179 181 182 180 173 165 164 157 144 134 120 112 113 114 101 86 81 74 71 51 50 57 53 41 40 19 15 34 60 44 32 48 50 28 20 41 43 40 8
273 264 256 233 169 198 219 220 201 196 188 189 184 187 182 172 164 157 148 139 131 117 103 111 113 96 88 75 72 69 48 36 41 34 38 37 26 23 41 35 33 48 48 42 25 32 39 5 13
265 261 252 245 216 229 231 234 214 200 190 193 190 186 182 177 162 153 148 144 143 135 126 115 116 110 103 91 93 95 85 52 57 33 26 26 30 18 26 49 47 48 41 31 26 39 29 341 352
245 256 265 266 257 249 251 246 224 184 179 176 179 181 178 176 162 153 154 154 149 144 138 123 119 117 113 107 88 70 59 38 38 41 31 3 20 23 23 28 37 33 59 41 5 63 64 331 323
258 267 270 270 264 253 242 253 226 184 174 173 173 174 173 170 161 153 154 156 154 150 140 134 129 125 126 125 114 109 98 87 344 41 62 14 21 27 25 13 12 13 26 52 315 83 83 162 300
280 287 269 263 263 266 252 259 217 173 178 167 165 165 167 167 163 156 152 156 158 156 151 151 148 142 142 145 147 154 140 149 107 63 48 20 359 3 28 10 2 357 355 29 320 2 35 67 289
271 265 259 253 253 256 246 248 207 185 168 155 155 153 159 161 158 153 150 150 156 153 149 157 159 149 150 164 167 170 150 140 126 97 83 348 350 320 356 18 351 342 348 349 315 279 216 195 5
242 258 256 237 226 239 223 234 153 131 124 137 145 146 150 151 152 154 154 151 150 150 155 166 159 161 167 185 192 188 161 168 169 177 184 180 113 325 319 344 322 330 348 343 340 314 300 203 187
245 250 260 275 273 270 234 220 125 123 124 130 132 133 142 143 139 145 149 147 154 159 162 169 170 178 182 191 202 187 158 157 143 166 130 135 141 204 310 345 356 360 357 354 354 346 313 304 255
254 251 269 280 287 284 241 166 154 132 134 140 141 135 140 142 140 146 147 147 154 159 163 173 170 171 184 192 168 153 156 144 139 173 122 162 194 231 162 293 318 326 9 5 359 338 298 276 283
254 274 267 260 276 277 271 235 161 151 152 142 136 135 140 139 137 136 133 141 148 147 158 172 163 166 164 142 129 110 106 105 142 163 186 224 254 77 202 236 254 272 223 180 217 307 285 265 217
226 243 258 268 262 272 287 344 101 137 144 148 134 124 134 131 130 129 134 140 144 141 144 145 142 140 145 158 141 137 138 172 154 184 218 234 268 256 243 241 269 273 256 221 203 226 250 259 245
247 252 258 265 273 275 276 251 75 111 119 131 132 129 128 122 125 124 130 132 132 134 139 144 150 153 156 167 161 152 166 185 183 226 228 240 257 283 291 283 289 289 286 273 228 245 249 260 246